Time,TemperatureF,DewpointF,PressureIn,WindDirection,WindDirectionDegrees,WindSpeedMPH,WindSpeedGustMPH,Humidity,HourlyPrecipIn,Conditions,Clouds,dailyrainin,SoftwareType,DateUTC
2013-02-05 00:00:00,32.5,24.2,29.91,NE,39,0.0,0.0,71,0.00,,---,0.00,VWS V14.01,2013-02-05 05:00:00,
2013-02-05 00:05:00,32.5,23.8,29.91,NE,39,0.0,0.0,70,0.00,,---,0.00,VWS V14.01,2013-02-05 05:05:00,
2013-02-05 00:10:00,32.4,23.4,29.91,NE,39,0.0,0.0,69,0.00,,---,0.00,VWS V14.01,2013-02-05 05:10:00,
2013-02-05 00:15:00,32.4,23.7,29.91,NE,39,0.0,0.0,70,0.00,,---,0.00,VWS V14.01,2013-02-05 05:15:00,
2013-02-05 00:20:00,32.5,23.8,29.91,NE,39,0.0,0.0,70,0.00,,---,0.00,VWS V14.01,2013-02-05 05:20:00,
2013-02-05 00:25:00,32.5,23.8,29.91,NE,39,0.0,0.0,70,0.00,,---,0.00,VWS V14.01,2013-02-05 05:25:00,
2013-02-05 00:30:00,32.5,23.8,29.91,NE,39,0.0,0.0,70,0.00,,---,0.00,VWS V14.01,2013-02-05 05:30:00,
2013-02-05 00:35:00,32.5,24.2,29.90,NE,39,0.0,0.0,71,0.00,,---,0.00,VWS V14.01,2013-02-05 05:35:00,
2013-02-05 00:40:00,32.6,24.6,29.90,NE,39,0.0,0.0,72,0.00,,---,0.00,VWS V14.01,2013-02-05 05:40:00,
2013-02-05 00:45:00,32.6,24.9,29.90,NE,39,0.0,0.0,73,0.00,,---,0.00,VWS V14.01,2013-02-05 05:45:00,
2013-02-05 00:50:00,32.6,24.9,29.90,NE,39,0.0,0.0,73,0.00,,---,0.00,VWS V14.01,2013-02-05 05:50:00,
2013-02-05 00:55:00,32.7,25.0,29.89,NE,39,0.0,0.0,73,0.00,,---,0.00,VWS V14.01,2013-02-05 05:55:00,
2013-02-05 01:00:00,32.7,25.3,29.89,NE,39,0.0,0.0,74,0.00,,---,0.00,VWS V14.01,2013-02-05 06:00:00,
2013-02-05 01:05:00,32.7,25.3,29.89,NE,39,0.0,0.0,74,0.00,,---,0.00,VWS V14.01,2013-02-05 06:05:00,
2013-02-05 01:10:00,32.7,25.3,29.89,NE,39,0.0,0.0,74,0.00,,---,0.00,VWS V14.01,2013-02-05 06:10:00,
2013-02-05 01:15:00,32.6,24.9,29.89,NE,39,0.0,0.0,73,0.00,,---,0.00,VWS V14.01,2013-02-05 06:15:00,
2013-02-05 01:20:00,32.6,24.9,29.89,NE,39,0.0,0.0,73,0.00,,---,0.00,VWS V14.01,2013-02-05 06:20:00,
2013-02-05 01:25:00,32.6,24.6,29.90,NE,39,0.0,0.0,72,0.00,,---,0.00,VWS V14.01,2013-02-05 06:25:00,
2013-02-05 01:30:00,32.5,24.5,29.89,NE,39,0.0,0.0,72,0.00,,---,0.00,VWS V14.01,2013-02-05 06:30:00,
2013-02-05 01:35:00,32.5,24.5,29.89,NE,39,0.0,0.0,72,0.00,,---,0.00,VWS V14.01,2013-02-05 06:35:00,
2013-02-05 01:40:00,32.5,25.1,29.89,NE,39,0.0,0.0,74,0.00,,---,0.00,VWS V14.01,2013-02-05 06:40:00,
2013-02-05 01:45:00,32.4,25.0,29.89,NE,39,0.0,0.0,74,0.00,,---,0.00,VWS V14.01,2013-02-05 06:45:00,
2013-02-05 01:50:00,32.4,24.7,29.89,NE,39,0.0,0.0,73,0.00,,---,0.00,VWS V14.01,2013-02-05 06:50:00,
2013-02-05 01:55:00,32.3,24.6,29.89,NE,39,0.0,0.0,73,0.00,,---,0.00,VWS V14.01,2013-02-05 06:55:00,
2013-02-05 02:00:00,32.3,25.0,29.89,NE,39,0.0,0.0,74,0.00,,---,0.00,VWS V14.01,2013-02-05 07:00:00,
2013-02-05 02:05:00,32.2,24.9,29.89,NE,39,0.0,0.0,74,0.00,,---,0.00,VWS V14.01,2013-02-05 07:05:00,
2013-02-05 02:10:00,32.1,24.8,29.89,NE,39,0.0,0.0,74,0.00,,---,0.00,VWS V14.01,2013-02-05 07:10:00,
2013-02-05 02:15:00,32.1,24.8,29.89,NE,39,0.0,0.0,74,0.00,,---,0.00,VWS V14.01,2013-02-05 07:15:00,
2013-02-05 02:20:00,32.0,24.7,29.89,NE,39,0.0,0.0,74,0.00,,---,0.00,VWS V14.01,2013-02-05 07:20:00,
2013-02-05 02:25:00,31.9,24.6,29.89,NE,39,0.0,0.0,74,0.00,,---,0.00,VWS V14.01,2013-02-05 07:25:00,
2013-02-05 02:30:00,31.9,24.6,29.89,NE,39,0.0,0.0,74,0.00,,---,0.00,VWS V14.01,2013-02-05 07:30:00,
2013-02-05 02:35:00,31.7,24.4,29.89,NE,39,0.0,0.0,74,0.00,,---,0.00,VWS V14.01,2013-02-05 07:35:00,
2013-02-05 02:40:00,31.6,24.6,29.89,NE,39,0.0,0.0,75,0.00,,---,0.00,VWS V14.01,2013-02-05 07:40:00,
2013-02-05 02:45:00,31.4,24.4,29.89,NE,39,0.0,0.0,75,0.00,,---,0.00,VWS V14.01,2013-02-05 07:45:00,
2013-02-05 02:50:00,31.3,24.3,29.88,NE,39,0.0,0.0,75,0.00,,---,0.00,VWS V14.01,2013-02-05 07:50:00,
2013-02-05 02:55:00,31.1,24.1,29.88,NE,39,0.0,0.0,75,0.00,,---,0.00,VWS V14.01,2013-02-05 07:55:00,
2013-02-05 03:00:00,31.0,24.0,29.88,NE,39,0.0,0.0,75,0.00,,---,0.00,VWS V14.01,2013-02-05 08:00:00,
2013-02-05 03:05:00,30.9,23.9,29.88,NE,39,0.0,0.0,75,0.00,,---,0.00,VWS V14.01,2013-02-05 08:05:00,
2013-02-05 03:10:00,30.8,24.1,29.87,NE,39,0.0,0.0,76,0.00,,---,0.00,VWS V14.01,2013-02-05 08:10:00,
2013-02-05 03:15:00,30.7,24.0,29.87,NE,39,0.0,0.0,76,0.00,,---,0.00,VWS V14.01,2013-02-05 08:15:00,
2013-02-05 03:20:00,30.6,24.0,29.88,NE,39,0.0,0.0,76,0.00,,---,0.00,VWS V14.01,2013-02-05 08:20:00,
2013-02-05 03:25:00,30.5,24.2,29.88,NE,39,0.0,0.0,77,0.00,,---,0.00,VWS V14.01,2013-02-05 08:25:00,
2013-02-05 03:30:00,30.3,24.0,29.87,NE,39,0.0,0.0,77,0.00,,---,0.00,VWS V14.01,2013-02-05 08:30:00,
2013-02-05 03:35:00,30.2,23.9,29.87,NE,39,0.0,0.0,77,0.00,,---,0.00,VWS V14.01,2013-02-05 08:35:00,
2013-02-05 03:40:00,30.1,23.8,29.87,NE,39,0.0,0.0,77,0.00,,---,0.00,VWS V14.01,2013-02-05 08:40:00,
2013-02-05 03:45:00,30.0,24.0,29.88,NE,39,0.0,0.0,78,0.00,,---,0.00,VWS V14.01,2013-02-05 08:45:00,
2013-02-05 03:50:00,29.9,23.9,29.88,NE,39,0.0,0.0,78,0.00,,---,0.00,VWS V14.01,2013-02-05 08:50:00,
2013-02-05 03:55:00,29.9,24.2,29.88,NE,39,0.0,0.0,79,0.00,,---,0.00,VWS V14.01,2013-02-05 08:55:00,
2013-02-05 04:00:00,29.8,24.4,29.87,NE,39,0.0,0.0,80,0.00,,---,0.00,VWS V14.01,2013-02-05 09:00:00,
2013-02-05 04:05:00,29.8,24.4,29.87,NE,39,0.0,0.0,80,0.00,,---,0.00,VWS V14.01,2013-02-05 09:05:00,
2013-02-05 04:10:00,29.8,24.7,29.87,NE,39,0.0,0.0,81,0.00,,---,0.00,VWS V14.01,2013-02-05 09:10:00,
2013-02-05 04:15:00,29.9,24.8,29.86,NE,39,1.0,1.0,81,0.00,,---,0.00,VWS V14.01,2013-02-05 09:15:00,
2013-02-05 04:20:00,29.9,25.1,29.87,NE,39,0.0,1.0,82,0.00,,---,0.00,VWS V14.01,2013-02-05 09:20:00,
2013-02-05 04:25:00,29.9,25.1,29.87,NE,39,0.0,1.0,82,0.00,,---,0.00,VWS V14.01,2013-02-05 09:25:00,
2013-02-05 04:30:00,30.0,25.2,29.87,NE,39,0.0,1.0,82,0.00,,---,0.00,VWS V14.01,2013-02-05 09:30:00,
2013-02-05 04:35:00,30.0,25.2,29.87,NE,39,0.0,0.0,82,0.00,,---,0.00,VWS V14.01,2013-02-05 09:35:00,
2013-02-05 04:40:00,30.1,25.3,29.86,NE,39,0.0,1.0,82,0.00,,---,0.00,VWS V14.01,2013-02-05 09:40:00,
2013-02-05 04:45:00,30.1,25.0,29.86,NE,39,0.0,1.0,81,0.00,,---,0.00,VWS V14.01,2013-02-05 09:45:00,
2013-02-05 04:50:00,30.1,25.0,29.86,NE,39,0.0,1.0,81,0.00,,---,0.00,VWS V14.01,2013-02-05 09:50:00,
2013-02-05 04:55:00,30.2,25.1,29.87,NE,39,0.0,2.0,81,0.00,,---,0.00,VWS V14.01,2013-02-05 09:55:00,
2013-02-05 05:00:00,30.2,25.1,29.87,NE,39,0.0,2.0,81,0.00,,---,0.00,VWS V14.01,2013-02-05 10:00:00,
2013-02-05 05:05:00,30.1,25.0,29.87,NE,39,0.0,0.0,81,0.00,,---,0.00,VWS V14.01,2013-02-05 10:05:00,
2013-02-05 05:10:00,30.2,25.1,29.88,NE,39,0.0,0.0,81,0.00,,---,0.00,VWS V14.01,2013-02-05 10:10:00,
2013-02-05 05:15:00,30.1,25.0,29.88,NE,39,0.0,0.0,81,0.00,,---,0.00,VWS V14.01,2013-02-05 10:15:00,
2013-02-05 05:20:00,30.1,24.7,29.88,NE,39,0.0,0.0,80,0.00,,---,0.00,VWS V14.01,2013-02-05 10:20:00,
2013-02-05 05:25:00,30.1,24.7,29.88,NE,39,0.0,0.0,80,0.00,,---,0.00,VWS V14.01,2013-02-05 10:25:00,
2013-02-05 05:30:00,30.1,24.7,29.88,NE,39,0.0,0.0,80,0.00,,---,0.00,VWS V14.01,2013-02-05 10:30:00,
2013-02-05 05:35:00,30.3,25.5,29.88,NE,39,1.0,1.0,82,0.00,,---,0.00,VWS V14.01,2013-02-05 10:35:00,
2013-02-05 05:40:00,30.3,25.8,29.88,NE,39,0.0,1.0,83,0.00,,---,0.00,VWS V14.01,2013-02-05 10:40:00,
2013-02-05 05:45:00,30.3,25.5,29.88,NE,39,0.0,1.0,82,0.00,,---,0.00,VWS V14.01,2013-02-05 10:45:00,
2013-02-05 05:50:00,30.4,25.6,29.88,NE,39,0.0,1.0,82,0.00,,---,0.00,VWS V14.01,2013-02-05 10:50:00,
2013-02-05 05:55:00,30.5,25.7,29.88,NE,39,0.0,1.0,82,0.00,,---,0.00,VWS V14.01,2013-02-05 10:55:00,
2013-02-05 06:00:00,30.5,25.7,29.88,NE,39,0.0,1.0,82,0.00,,---,0.00,VWS V14.01,2013-02-05 11:00:00,
2013-02-05 06:05:00,30.5,25.7,29.88,NE,39,0.0,0.0,82,0.00,,---,0.00,VWS V14.01,2013-02-05 11:05:00,
2013-02-05 06:10:00,30.6,25.5,29.87,NE,39,0.0,1.0,81,0.00,,---,0.00,VWS V14.01,2013-02-05 11:10:00,
2013-02-05 06:15:00,30.6,25.8,29.88,NE,39,0.0,1.0,82,0.00,,---,0.00,VWS V14.01,2013-02-05 11:15:00,
2013-02-05 06:20:00,30.7,25.9,29.88,NE,39,0.0,1.0,82,0.00,,---,0.00,VWS V14.01,2013-02-05 11:20:00,
2013-02-05 06:25:00,30.8,26.3,29.89,NE,39,0.0,1.0,83,0.00,,---,0.00,VWS V14.01,2013-02-05 11:25:00,
2013-02-05 06:30:00,30.9,26.4,29.89,NE,39,0.0,1.0,83,0.00,,---,0.00,VWS V14.01,2013-02-05 11:30:00,
2013-02-05 06:35:00,30.9,26.6,29.89,NE,39,0.0,0.0,84,0.00,,---,0.00,VWS V14.01,2013-02-05 11:35:00,
2013-02-05 06:40:00,31.1,26.8,29.89,NE,39,0.0,0.0,84,0.00,,---,0.00,VWS V14.01,2013-02-05 11:40:00,
2013-02-05 06:45:00,31.2,26.9,29.90,NE,39,0.0,0.0,84,0.00,,---,0.00,VWS V14.01,2013-02-05 11:45:00,
2013-02-05 06:50:00,31.3,27.0,29.89,NE,39,0.0,1.0,84,0.00,,---,0.00,VWS V14.01,2013-02-05 11:50:00,
2013-02-05 06:55:00,31.5,27.5,29.89,NE,39,0.0,1.0,85,0.00,,---,0.00,VWS V14.01,2013-02-05 11:55:00,
2013-02-05 07:00:00,31.5,27.5,29.89,NE,39,0.0,1.0,85,0.00,,---,0.00,VWS V14.01,2013-02-05 12:00:00,
2013-02-05 07:05:00,31.6,27.6,29.90,NE,39,0.0,0.0,85,0.00,,---,0.00,VWS V14.01,2013-02-05 12:05:00,
2013-02-05 07:10:00,31.7,27.7,29.90,NE,39,0.0,0.0,85,0.00,,---,0.00,VWS V14.01,2013-02-05 12:10:00,
2013-02-05 07:15:00,31.8,27.8,29.91,NE,39,0.0,0.0,85,0.00,,---,0.00,VWS V14.01,2013-02-05 12:15:00,
2013-02-05 07:20:00,31.9,27.9,29.90,ESE,105,1.0,2.0,85,0.00,,---,0.00,VWS V14.01,2013-02-05 12:20:00,
2013-02-05 07:25:00,32.1,28.4,29.91,ESE,105,0.0,2.0,86,0.00,,---,0.00,VWS V14.01,2013-02-05 12:25:00,
2013-02-05 07:30:00,32.1,28.4,29.91,ESE,105,0.0,2.0,86,0.00,,---,0.00,VWS V14.01,2013-02-05 12:30:00,
2013-02-05 07:35:00,32.2,28.5,29.91,ESE,105,0.0,0.0,86,0.00,,---,0.00,VWS V14.01,2013-02-05 12:35:00,
2013-02-05 07:40:00,32.3,28.6,29.91,ESE,105,0.0,0.0,86,0.00,,---,0.00,VWS V14.01,2013-02-05 12:40:00,
2013-02-05 07:45:00,32.3,28.6,29.92,ESE,105,0.0,0.0,86,0.00,,---,0.00,VWS V14.01,2013-02-05 12:45:00,
2013-02-05 07:50:00,32.4,28.7,29.92,ESE,105,0.0,0.0,86,0.00,,---,0.00,VWS V14.01,2013-02-05 12:50:00,
2013-02-05 07:55:00,32.5,28.8,29.92,ESE,105,0.0,2.0,86,0.00,,---,0.00,VWS V14.01,2013-02-05 12:55:00,
2013-02-05 08:00:00,32.6,28.9,29.92,ESE,105,0.0,2.0,86,0.00,,---,0.00,VWS V14.01,2013-02-05 13:00:00,
2013-02-05 08:05:00,32.7,29.0,29.92,ESE,105,0.0,0.0,86,0.00,,---,0.00,VWS V14.01,2013-02-05 13:05:00,
2013-02-05 08:10:00,32.8,29.1,29.92,ESE,105,0.0,1.0,86,0.00,,---,0.00,VWS V14.01,2013-02-05 13:10:00,
2013-02-05 08:15:00,32.8,29.1,29.92,ESE,105,0.0,1.0,86,0.00,,---,0.00,VWS V14.01,2013-02-05 13:15:00,
2013-02-05 08:20:00,32.9,29.2,29.91,ESE,105,0.0,2.0,86,0.00,,---,0.00,VWS V14.01,2013-02-05 13:20:00,
2013-02-05 08:25:00,32.9,28.9,29.92,ESE,105,0.0,2.0,85,0.00,,---,0.00,VWS V14.01,2013-02-05 13:25:00,
2013-02-05 08:30:00,33.0,29.0,29.91,ESE,106,0.0,2.0,85,0.00,,---,0.00,VWS V14.01,2013-02-05 13:30:00,
2013-02-05 08:35:00,33.0,29.0,29.92,ESE,106,0.0,1.0,85,0.00,,---,0.00,VWS V14.01,2013-02-05 13:35:00,
2013-02-05 08:40:00,33.1,29.1,29.92,ESE,106,0.0,1.0,85,0.00,,---,0.00,VWS V14.01,2013-02-05 13:40:00,
2013-02-05 08:45:00,33.1,29.1,29.93,ESE,106,0.0,1.0,85,0.00,,---,0.00,VWS V14.01,2013-02-05 13:45:00,
2013-02-05 08:50:00,33.2,29.2,29.93,ESE,106,0.0,1.0,85,0.00,,---,0.00,VWS V14.01,2013-02-05 13:50:00,
2013-02-05 08:55:00,33.2,29.2,29.93,ESE,106,0.0,1.0,85,0.00,,---,0.00,VWS V14.01,2013-02-05 13:55:00,
2013-02-05 09:00:00,33.3,29.3,29.93,North,353,1.0,2.0,85,0.00,,---,0.00,VWS V14.01,2013-02-05 14:00:00,
2013-02-05 09:05:00,33.4,29.4,29.93,North,353,1.0,2.0,85,0.00,,---,0.00,VWS V14.01,2013-02-05 14:05:00,
2013-02-05 09:10:00,33.5,29.5,29.93,North,353,1.0,3.0,85,0.00,,---,0.00,VWS V14.01,2013-02-05 14:10:00,
2013-02-05 09:15:00,33.6,29.3,29.93,North,353,0.0,3.0,84,0.00,,---,0.00,VWS V14.01,2013-02-05 14:15:00,
2013-02-05 09:20:00,33.7,29.4,29.94,North,353,1.0,3.0,84,0.00,,---,0.00,VWS V14.01,2013-02-05 14:20:00,
2013-02-05 09:25:00,33.8,29.5,29.94,North,353,0.0,3.0,84,0.00,,---,0.00,VWS V14.01,2013-02-05 14:25:00,
2013-02-05 09:30:00,34.1,29.8,29.94,North,354,1.0,3.0,84,0.00,,---,0.00,VWS V14.01,2013-02-05 14:30:00,
2013-02-05 09:35:00,34.6,30.0,29.94,North,354,1.0,2.0,83,0.00,,---,0.00,VWS V14.01,2013-02-05 14:35:00,
2013-02-05 09:40:00,34.7,29.8,29.93,ENE,62,1.0,2.0,82,0.00,,---,0.00,VWS V14.01,2013-02-05 14:40:00,
2013-02-05 09:45:00,35.0,30.1,29.93,North,354,1.0,3.0,82,0.00,,---,0.00,VWS V14.01,2013-02-05 14:45:00,
2013-02-05 09:50:00,35.2,30.0,29.93,ESE,119,0.0,3.0,81,0.00,,---,0.00,VWS V14.01,2013-02-05 14:50:00,
2013-02-05 09:55:00,35.5,30.3,29.93,North,357,0.0,3.0,81,0.00,,---,0.00,VWS V14.01,2013-02-05 14:55:00,
2013-02-05 10:00:00,35.6,30.0,29.93,North,357,0.0,3.0,80,0.00,,---,0.00,VWS V14.01,2013-02-05 15:00:00,
2013-02-05 10:05:00,35.8,30.2,29.93,North,357,1.0,2.0,80,0.00,,---,0.00,VWS V14.01,2013-02-05 15:05:00,
2013-02-05 10:10:00,35.9,30.0,29.94,North,357,0.0,2.0,79,0.00,,---,0.00,VWS V14.01,2013-02-05 15:10:00,
2013-02-05 10:15:00,35.9,29.7,29.94,North,357,0.0,2.0,78,0.00,,---,0.00,VWS V14.01,2013-02-05 15:15:00,
2013-02-05 10:20:00,35.9,29.7,29.94,North,357,0.0,2.0,78,0.00,,---,0.00,VWS V14.01,2013-02-05 15:20:00,
2013-02-05 10:25:00,35.8,29.6,29.94,North,357,0.0,2.0,78,0.00,,---,0.00,VWS V14.01,2013-02-05 15:25:00,
2013-02-05 10:30:00,35.9,30.0,29.94,East,79,2.0,2.0,79,0.00,,---,0.00,VWS V14.01,2013-02-05 15:30:00,
2013-02-05 10:35:00,35.9,29.7,29.94,ESE,111,0.0,3.0,78,0.00,,---,0.00,VWS V14.01,2013-02-05 15:35:00,
2013-02-05 10:40:00,36.0,29.8,29.94,ESE,111,0.0,3.0,78,0.00,,---,0.00,VWS V14.01,2013-02-05 15:40:00,
2013-02-05 10:45:00,36.0,29.8,29.94,ESE,111,1.0,3.0,78,0.00,,---,0.00,VWS V14.01,2013-02-05 15:45:00,
2013-02-05 10:49:00,36.0,29.5,29.94,ESE,111,2.0,3.0,77,0.00,,---,0.00,VWS V14.01,2013-02-05 15:49:00,
2013-02-05 10:54:00,36.0,29.8,29.95,ESE,111,0.0,3.0,78,0.00,,---,0.00,VWS V14.01,2013-02-05 15:54:00,
2013-02-05 10:59:00,36.1,29.6,29.94,ESE,111,0.0,3.0,77,0.00,,---,0.00,VWS V14.01,2013-02-05 15:59:00,
2013-02-05 11:04:00,36.2,30.0,29.94,ESE,111,0.0,1.0,78,0.00,,---,0.00,VWS V14.01,2013-02-05 16:04:00,
2013-02-05 11:09:00,36.3,30.1,29.94,ESE,107,2.0,2.0,78,0.00,,---,0.00,VWS V14.01,2013-02-05 16:09:00,
2013-02-05 11:14:00,36.2,29.7,29.93,SSE,149,0.0,2.0,77,0.00,,---,0.00,VWS V14.01,2013-02-05 16:14:00,
2013-02-05 11:19:00,36.2,29.7,29.93,ESE,105,2.0,2.0,77,0.00,,---,0.00,VWS V14.01,2013-02-05 16:19:00,
2013-02-05 11:24:00,36.4,30.2,29.93,ESE,105,0.0,2.0,78,0.00,,---,0.00,VWS V14.01,2013-02-05 16:24:00,
2013-02-05 11:29:00,36.5,29.7,29.94,ESE,105,1.0,2.0,76,0.00,,---,0.00,VWS V14.01,2013-02-05 16:29:00,
2013-02-05 11:34:00,36.7,30.2,29.94,North,1,1.0,2.0,77,0.00,,---,0.00,VWS V14.01,2013-02-05 16:34:00,
2013-02-05 11:39:00,36.8,30.3,29.94,North,360,1.0,2.0,77,0.00,,---,0.00,VWS V14.01,2013-02-05 16:39:00,
2013-02-05 11:44:00,36.8,29.6,29.94,North,360,1.0,2.0,75,0.00,,---,0.00,VWS V14.01,2013-02-05 16:44:00,
2013-02-05 11:49:00,36.7,29.5,29.93,ENE,68,1.0,2.0,75,0.00,,---,0.00,VWS V14.01,2013-02-05 16:49:00,
2013-02-05 11:54:00,36.7,29.9,29.93,ENE,68,1.0,2.0,76,0.00,,---,0.00,VWS V14.01,2013-02-05 16:54:00,
2013-02-05 11:59:00,36.8,30.0,29.92,East,101,0.0,4.0,76,0.00,,---,0.00,VWS V14.01,2013-02-05 16:59:00,
2013-02-05 12:04:00,36.9,29.7,29.92,East,101,1.0,3.0,75,0.00,,---,0.00,VWS V14.01,2013-02-05 17:04:00,
2013-02-05 12:09:00,37.0,29.5,29.92,North,349,1.0,3.0,74,0.00,,---,0.00,VWS V14.01,2013-02-05 17:09:00,
2013-02-05 12:14:00,37.0,29.2,29.92,NNW,347,2.0,3.0,73,0.00,,---,0.00,VWS V14.01,2013-02-05 17:14:00,
2013-02-05 12:19:00,37.1,29.3,29.92,NNW,343,2.0,3.0,73,0.00,,---,0.00,VWS V14.01,2013-02-05 17:19:00,
2013-02-05 12:24:00,37.4,29.2,29.91,NE,37,1.0,3.0,72,0.00,,---,0.00,VWS V14.01,2013-02-05 17:24:00,
2013-02-05 12:29:00,37.4,28.9,29.91,North,351,0.0,3.0,71,0.00,,---,0.00,VWS V14.01,2013-02-05 17:29:00,
2013-02-05 12:34:00,37.5,29.0,29.91,NNE,17,2.0,3.0,71,0.00,,---,0.00,VWS V14.01,2013-02-05 17:34:00,
2013-02-05 12:39:00,37.8,29.6,29.90,East,79,2.0,3.0,72,0.00,,---,0.00,VWS V14.01,2013-02-05 17:39:00,
2013-02-05 12:44:00,38.0,29.1,29.90,ESE,106,2.0,3.0,70,0.00,,---,0.00,VWS V14.01,2013-02-05 17:44:00,
2013-02-05 12:49:00,38.0,29.5,29.90,ESE,106,1.0,3.0,71,0.00,,---,0.00,VWS V14.01,2013-02-05 17:49:00,
2013-02-05 12:54:00,38.3,30.1,29.90,ENE,67,2.0,3.0,72,0.00,,---,0.00,VWS V14.01,2013-02-05 17:54:00,
2013-02-05 12:59:00,38.6,29.7,29.90,NW,321,0.0,3.0,70,0.00,,---,0.00,VWS V14.01,2013-02-05 17:59:00,
2013-02-05 13:04:00,38.5,28.9,29.90,ENE,63,1.0,2.0,68,0.00,,---,0.00,VWS V14.01,2013-02-05 18:04:00,
2013-02-05 13:09:00,38.5,28.9,29.89,NNE,15,0.0,2.0,68,0.00,,---,0.00,VWS V14.01,2013-02-05 18:09:00,
2013-02-05 13:14:00,38.6,29.3,29.89,NNE,15,0.0,2.0,69,0.00,,---,0.00,VWS V14.01,2013-02-05 18:14:00,
2013-02-05 13:19:00,38.6,29.3,29.89,ENE,63,1.0,2.0,69,0.00,,---,0.00,VWS V14.01,2013-02-05 18:19:00,
2013-02-05 13:24:00,38.5,29.2,29.89,ENE,76,1.0,2.0,69,0.00,,---,0.00,VWS V14.01,2013-02-05 18:24:00,
2013-02-05 13:29:00,38.5,28.9,29.89,North,360,0.0,3.0,68,0.00,,---,0.00,VWS V14.01,2013-02-05 18:29:00,
2013-02-05 13:34:00,38.6,28.6,29.88,North,360,1.0,1.0,67,0.00,,---,0.00,VWS V14.01,2013-02-05 18:34:00,
2013-02-05 13:39:00,38.6,28.2,29.88,NE,49,1.0,2.0,66,0.00,,---,0.00,VWS V14.01,2013-02-05 18:39:00,
2013-02-05 13:44:00,38.8,28.4,29.87,NNE,33,1.0,2.0,66,0.00,,---,0.00,VWS V14.01,2013-02-05 18:44:00,
2013-02-05 13:49:00,38.9,28.5,29.87,ENE,71,0.0,2.0,66,0.00,,---,0.00,VWS V14.01,2013-02-05 18:49:00,
2013-02-05 13:54:00,38.9,28.5,29.87,NW,322,3.0,3.0,66,0.00,,---,0.00,VWS V14.01,2013-02-05 18:54:00,
2013-02-05 13:59:00,38.9,28.5,29.88,NNW,347,1.0,4.0,66,0.00,,---,0.00,VWS V14.01,2013-02-05 18:59:00,
2013-02-05 14:04:00,39.2,29.2,29.88,East,79,1.0,3.0,67,0.00,,---,0.00,VWS V14.01,2013-02-05 19:04:00,
2013-02-05 14:09:00,39.2,29.2,29.88,NE,42,0.0,3.0,67,0.00,,---,0.00,VWS V14.01,2013-02-05 19:09:00,
2013-02-05 14:14:00,39.2,29.2,29.87,East,86,1.0,3.0,67,0.00,,---,0.00,VWS V14.01,2013-02-05 19:14:00,
2013-02-05 14:19:00,39.3,28.9,29.87,East,99,2.0,3.0,66,0.00,,---,0.00,VWS V14.01,2013-02-05 19:19:00,
2013-02-05 14:24:00,39.3,28.9,29.87,East,87,1.0,3.0,66,0.00,,---,0.00,VWS V14.01,2013-02-05 19:24:00,
2013-02-05 14:29:00,39.5,28.7,29.87,East,97,3.0,4.0,65,0.00,,---,0.00,VWS V14.01,2013-02-05 19:29:00,
2013-02-05 14:34:00,39.2,28.4,29.87,ESE,108,1.0,3.0,65,0.00,,---,0.00,VWS V14.01,2013-02-05 19:34:00,
2013-02-05 14:39:00,39.3,28.9,29.87,East,83,0.0,3.0,66,0.00,,---,0.00,VWS V14.01,2013-02-05 19:39:00,
2013-02-05 14:44:00,39.3,28.5,29.87,ESE,123,3.0,3.0,65,0.00,,---,0.00,VWS V14.01,2013-02-05 19:44:00,
2013-02-05 14:49:00,39.5,28.4,29.87,East,85,1.0,3.0,64,0.00,,---,0.00,VWS V14.01,2013-02-05 19:49:00,
2013-02-05 14:54:00,39.2,28.4,29.87,East,97,2.0,3.0,65,0.00,,---,0.00,VWS V14.01,2013-02-05 19:54:00,
2013-02-05 14:59:00,39.2,28.4,29.87,East,97,1.0,3.0,65,0.00,,---,0.00,VWS V14.01,2013-02-05 19:59:00,
2013-02-05 15:04:00,39.1,28.3,29.87,ESE,110,1.0,4.0,65,0.00,,---,0.00,VWS V14.01,2013-02-05 20:04:00,
2013-02-05 15:09:00,39.2,29.5,29.87,ESE,110,0.0,4.0,68,0.00,,---,0.00,VWS V14.01,2013-02-05 20:09:00,
2013-02-05 15:14:00,39.1,29.1,29.87,ESE,103,2.0,4.0,67,0.00,,---,0.00,VWS V14.01,2013-02-05 20:14:00,
2013-02-05 15:19:00,38.8,29.2,29.88,ESE,111,1.0,4.0,68,0.00,,---,0.00,VWS V14.01,2013-02-05 20:19:00,
2013-02-05 15:24:00,38.8,29.2,29.88,ESE,111,0.0,4.0,68,0.00,,---,0.00,VWS V14.01,2013-02-05 20:24:00,
2013-02-05 15:29:00,38.7,28.7,29.88,ESE,113,1.0,4.0,67,0.00,,---,0.00,VWS V14.01,2013-02-05 20:29:00,
2013-02-05 15:34:00,38.7,28.7,29.88,ESE,113,0.0,3.0,67,0.00,,---,0.00,VWS V14.01,2013-02-05 20:34:00,
2013-02-05 15:39:00,38.6,28.6,29.88,East,98,3.0,3.0,67,0.00,,---,0.00,VWS V14.01,2013-02-05 20:39:00,
2013-02-05 15:44:00,38.5,28.1,29.88,ESE,113,1.0,4.0,66,0.00,,---,0.00,VWS V14.01,2013-02-05 20:44:00,
2013-02-05 15:49:00,38.4,28.4,29.88,ESE,105,0.0,4.0,67,0.00,,---,0.00,VWS V14.01,2013-02-05 20:49:00,
2013-02-05 15:54:00,38.3,28.3,29.88,ESE,105,0.0,4.0,67,0.00,,---,0.00,VWS V14.01,2013-02-05 20:54:00,
2013-02-05 15:59:00,38.3,28.3,29.88,East,101,0.0,4.0,67,0.00,,---,0.00,VWS V14.01,2013-02-05 20:59:00,
2013-02-05 16:04:00,38.2,28.2,29.88,ESE,103,0.0,3.0,67,0.00,,---,0.00,VWS V14.01,2013-02-05 21:04:00,
2013-02-05 16:09:00,38.2,28.2,29.88,ESE,104,0.0,3.0,67,0.00,,---,0.00,VWS V14.01,2013-02-05 21:09:00,
2013-02-05 16:14:00,38.2,27.9,29.88,NW,311,0.0,3.0,66,0.00,,---,0.00,VWS V14.01,2013-02-05 21:14:00,
2013-02-05 16:19:00,38.1,27.8,29.88,ESE,123,1.0,3.0,66,0.00,,---,0.00,VWS V14.01,2013-02-05 21:19:00,
2013-02-05 16:24:00,38.0,27.7,29.88,East,94,0.0,3.0,66,0.00,,---,0.00,VWS V14.01,2013-02-05 21:24:00,
2013-02-05 16:29:00,37.9,27.9,29.88,East,94,0.0,3.0,67,0.00,,---,0.00,VWS V14.01,2013-02-05 21:29:00,
2013-02-05 16:34:00,37.9,28.3,29.88,East,94,0.0,1.0,68,0.00,,---,0.00,VWS V14.01,2013-02-05 21:34:00,
2013-02-05 16:39:00,37.8,27.8,29.88,East,94,0.0,1.0,67,0.00,,---,0.00,VWS V14.01,2013-02-05 21:39:00,
2013-02-05 16:44:00,37.8,27.8,29.88,East,94,0.0,1.0,67,0.00,,---,0.00,VWS V14.01,2013-02-05 21:44:00,
2013-02-05 16:49:00,37.7,28.1,29.88,East,94,0.0,1.0,68,0.00,,---,0.00,VWS V14.01,2013-02-05 21:49:00,
2013-02-05 16:54:00,37.7,27.8,29.88,East,94,0.0,1.0,67,0.00,,---,0.00,VWS V14.01,2013-02-05 21:54:00,
2013-02-05 16:59:00,37.7,27.8,29.88,NE,53,0.0,1.0,67,0.00,,---,0.00,VWS V14.01,2013-02-05 21:59:00,
2013-02-05 17:04:00,37.5,27.5,29.88,NE,54,0.0,1.0,67,0.00,,---,0.00,VWS V14.01,2013-02-05 22:04:00,
2013-02-05 17:09:00,37.5,27.5,29.88,NE,54,0.0,1.0,67,0.00,,---,0.00,VWS V14.01,2013-02-05 22:09:00,
2013-02-05 17:14:00,37.4,27.5,29.88,NE,53,0.0,1.0,67,0.00,,---,0.00,VWS V14.01,2013-02-05 22:14:00,
2013-02-05 17:19:00,37.3,27.4,29.88,NE,53,0.0,1.0,67,0.00,,---,0.00,VWS V14.01,2013-02-05 22:19:00,
2013-02-05 17:24:00,37.3,27.4,29.88,NE,53,0.0,1.0,67,0.00,,---,0.00,VWS V14.01,2013-02-05 22:24:00,
2013-02-05 17:29:00,37.3,27.4,29.88,NE,53,0.0,1.0,67,0.00,,---,0.00,VWS V14.01,2013-02-05 22:29:00,
2013-02-05 17:34:00,37.2,27.6,29.88,NE,53,0.0,0.0,68,0.00,,---,0.00,VWS V14.01,2013-02-05 22:34:00,
2013-02-05 17:39:00,37.1,27.5,29.88,NE,53,0.0,0.0,68,0.00,,---,0.00,VWS V14.01,2013-02-05 22:39:00,
2013-02-05 17:44:00,37.0,27.4,29.89,NE,53,0.0,0.0,68,0.00,,---,0.00,VWS V14.01,2013-02-05 22:44:00,
2013-02-05 17:49:00,36.9,27.7,29.89,NE,53,0.0,1.0,69,0.00,,---,0.00,VWS V14.01,2013-02-05 22:49:00,
2013-02-05 17:54:00,36.7,27.5,29.89,NE,53,0.0,1.0,69,0.00,,---,0.00,VWS V14.01,2013-02-05 22:54:00,
2013-02-05 17:59:00,36.6,27.8,29.89,NE,53,0.0,1.0,70,0.00,,---,0.00,VWS V14.01,2013-02-05 22:59:00,
2013-02-05 18:04:00,36.5,28.0,29.89,NE,53,0.0,0.0,71,0.00,,---,0.00,VWS V14.01,2013-02-05 23:04:00,
2013-02-05 18:09:00,36.3,28.1,29.89,NE,53,0.0,0.0,72,0.00,,---,0.00,VWS V14.01,2013-02-05 23:09:00,
2013-02-05 18:14:00,36.2,28.1,29.89,NE,53,0.0,0.0,72,0.00,,---,0.00,VWS V14.01,2013-02-05 23:14:00,
2013-02-05 18:19:00,36.1,28.3,29.89,NE,53,0.0,0.0,73,0.00,,---,0.00,VWS V14.01,2013-02-05 23:19:00,
2013-02-05 18:24:00,36.0,28.2,29.89,NE,53,0.0,1.0,73,0.00,,---,0.00,VWS V14.01,2013-02-05 23:24:00,
2013-02-05 18:29:00,35.9,28.4,29.89,NE,53,0.0,1.0,74,0.00,,---,0.00,VWS V14.01,2013-02-05 23:29:00,
2013-02-05 18:34:00,35.8,28.3,29.89,NE,53,0.0,0.0,74,0.00,,---,0.00,VWS V14.01,2013-02-05 23:34:00,
2013-02-05 18:39:00,35.7,28.6,29.89,NE,53,0.0,0.0,75,0.00,,---,0.00,VWS V14.01,2013-02-05 23:39:00,
2013-02-05 18:44:00,35.6,28.1,29.90,NE,53,0.0,0.0,74,0.00,,---,0.00,VWS V14.01,2013-02-05 23:44:00,
2013-02-05 18:49:00,35.5,28.4,29.90,NE,53,0.0,0.0,75,0.00,,---,0.00,VWS V14.01,2013-02-05 23:49:00,
2013-02-05 18:54:00,35.4,28.3,29.90,NE,53,0.0,0.0,75,0.00,,---,0.00,VWS V14.01,2013-02-05 23:54:00,
2013-02-05 18:59:00,35.2,28.4,29.90,NE,53,0.0,0.0,76,0.00,,---,0.00,VWS V14.01,2013-02-05 23:59:00,
2013-02-05 19:04:00,35.2,28.4,29.90,NE,53,0.0,0.0,76,0.00,,---,0.00,VWS V14.01,2013-02-06 00:04:00,
2013-02-05 19:09:00,35.0,28.2,29.90,NE,53,0.0,0.0,76,0.00,,---,0.00,VWS V14.01,2013-02-06 00:09:00,
2013-02-05 19:14:00,34.8,28.0,29.90,NE,53,0.0,0.0,76,0.00,,---,0.00,VWS V14.01,2013-02-06 00:14:00,
2013-02-05 19:19:00,34.7,27.9,29.90,NE,53,0.0,0.0,76,0.00,,---,0.00,VWS V14.01,2013-02-06 00:19:00,
2013-02-05 19:24:00,34.5,27.7,29.90,NE,53,0.0,0.0,76,0.00,,---,0.00,VWS V14.01,2013-02-06 00:24:00,
2013-02-05 19:29:00,34.4,27.6,29.91,NE,53,0.0,0.0,76,0.00,,---,0.00,VWS V14.01,2013-02-06 00:29:00,
2013-02-05 19:34:00,34.2,27.8,29.90,NE,53,0.0,1.0,77,0.00,,---,0.00,VWS V14.01,2013-02-06 00:34:00,
2013-02-05 19:39:00,34.1,28.0,29.90,NE,53,0.0,1.0,78,0.00,,---,0.00,VWS V14.01,2013-02-06 00:39:00,
2013-02-05 19:44:00,33.9,28.1,29.90,NE,53,0.0,1.0,79,0.00,,---,0.00,VWS V14.01,2013-02-06 00:44:00,
2013-02-05 19:49:00,33.9,28.1,29.90,NE,53,0.0,1.0,79,0.00,,---,0.00,VWS V14.01,2013-02-06 00:49:00,
2013-02-05 19:54:00,33.8,28.3,29.89,NE,53,0.0,1.0,80,0.00,,---,0.00,VWS V14.01,2013-02-06 00:54:00,
2013-02-05 19:59:00,33.8,28.6,29.89,NE,53,0.0,1.0,81,0.00,,---,0.00,VWS V14.01,2013-02-06 00:59:00,
2013-02-05 20:04:00,33.7,28.5,29.89,NE,53,0.0,1.0,81,0.00,,---,0.00,VWS V14.01,2013-02-06 01:04:00,
2013-02-05 20:09:00,33.6,28.4,29.89,NE,53,0.0,1.0,81,0.00,,---,0.00,VWS V14.01,2013-02-06 01:09:00,
2013-02-05 20:14:00,33.5,28.3,29.90,NE,53,0.0,1.0,81,0.00,,---,0.00,VWS V14.01,2013-02-06 01:14:00,
2013-02-05 20:19:00,33.4,28.2,29.90,NE,53,0.0,1.0,81,0.00,,---,0.00,VWS V14.01,2013-02-06 01:19:00,
2013-02-05 20:24:00,33.3,28.1,29.90,NE,53,0.0,1.0,81,0.00,,---,0.00,VWS V14.01,2013-02-06 01:24:00,
2013-02-05 20:29:00,33.2,28.0,29.90,NE,53,0.0,1.0,81,0.00,,---,0.00,VWS V14.01,2013-02-06 01:29:00,
2013-02-05 20:34:00,33.2,28.3,29.91,NE,53,0.0,1.0,82,0.00,,---,0.00,VWS V14.01,2013-02-06 01:34:00,
2013-02-05 20:39:00,33.1,27.9,29.90,NE,53,0.0,1.0,81,0.00,,---,0.00,VWS V14.01,2013-02-06 01:39:00,
2013-02-05 20:44:00,33.0,28.1,29.91,NE,53,0.0,1.0,82,0.00,,---,0.00,VWS V14.01,2013-02-06 01:44:00,
2013-02-05 20:49:00,33.0,28.1,29.91,NE,53,0.0,1.0,82,0.00,,---,0.00,VWS V14.01,2013-02-06 01:49:00,
2013-02-05 20:54:00,33.0,28.4,29.91,NE,54,0.0,1.0,83,0.00,,---,0.00,VWS V14.01,2013-02-06 01:54:00,
2013-02-05 20:59:00,33.0,28.4,29.91,NE,53,0.0,1.0,83,0.00,,---,0.00,VWS V14.01,2013-02-06 01:59:00,
2013-02-05 21:04:00,33.0,28.4,29.91,NE,53,0.0,0.0,83,0.00,,---,0.00,VWS V14.01,2013-02-06 02:04:00,
2013-02-05 21:09:00,33.0,28.7,29.91,NE,53,0.0,0.0,84,0.00,,---,0.00,VWS V14.01,2013-02-06 02:09:00,
2013-02-05 21:14:00,33.0,28.7,29.92,NE,53,0.0,0.0,84,0.00,,---,0.00,VWS V14.01,2013-02-06 02:14:00,
2013-02-05 21:19:00,33.0,28.7,29.92,NE,53,0.0,0.0,84,0.00,,---,0.00,VWS V14.01,2013-02-06 02:19:00,
2013-02-05 21:24:00,33.1,28.8,29.92,NE,53,0.0,0.0,84,0.00,,---,0.00,VWS V14.01,2013-02-06 02:24:00,
2013-02-05 21:29:00,33.1,28.8,29.91,NE,53,0.0,0.0,84,0.00,,---,0.00,VWS V14.01,2013-02-06 02:29:00,
2013-02-05 21:34:00,33.1,28.8,29.91,NE,53,0.0,0.0,84,0.00,,---,0.00,VWS V14.01,2013-02-06 02:34:00,
2013-02-05 21:39:00,33.1,28.8,29.91,NE,53,0.0,0.0,84,0.00,,---,0.00,VWS V14.01,2013-02-06 02:39:00,
2013-02-05 21:44:00,33.1,28.8,29.92,NE,53,0.0,0.0,84,0.00,,---,0.00,VWS V14.01,2013-02-06 02:44:00,
2013-02-05 21:49:00,33.0,28.7,29.92,NE,53,0.0,0.0,84,0.00,,---,0.00,VWS V14.01,2013-02-06 02:49:00,
2013-02-05 21:54:00,32.9,28.6,29.92,NE,53,0.0,0.0,84,0.00,,---,0.00,VWS V14.01,2013-02-06 02:54:00,
2013-02-05 21:59:00,32.9,28.6,29.92,NE,53,0.0,0.0,84,0.00,,---,0.00,VWS V14.01,2013-02-06 02:59:00,
2013-02-05 22:04:00,32.8,28.5,29.93,NE,53,0.0,0.0,84,0.00,,---,0.00,VWS V14.01,2013-02-06 03:04:00,
2013-02-05 22:09:00,32.7,28.4,29.92,NE,53,0.0,0.0,84,0.00,,---,0.00,VWS V14.01,2013-02-06 03:09:00,
2013-02-05 22:14:00,32.7,28.7,29.93,NE,53,0.0,0.0,85,0.00,,---,0.00,VWS V14.01,2013-02-06 03:14:00,
2013-02-05 22:19:00,32.7,28.7,29.93,NE,53,0.0,1.0,85,0.00,,---,0.00,VWS V14.01,2013-02-06 03:19:00,
2013-02-05 22:24:00,32.7,28.7,29.93,NE,53,0.0,1.0,85,0.00,,---,0.00,VWS V14.01,2013-02-06 03:24:00,
2013-02-05 22:29:00,32.7,29.0,29.93,NE,53,0.0,1.0,86,0.00,,---,0.00,VWS V14.01,2013-02-06 03:29:00,
2013-02-05 22:34:00,32.7,29.0,29.93,NE,53,0.0,0.0,86,0.00,,---,0.00,VWS V14.01,2013-02-06 03:34:00,
2013-02-05 22:39:00,32.8,29.1,29.93,NE,53,0.0,0.0,86,0.00,,---,0.00,VWS V14.01,2013-02-06 03:39:00,
2013-02-05 22:44:00,32.8,29.4,29.94,NE,53,0.0,1.0,87,0.00,,---,0.00,VWS V14.01,2013-02-06 03:44:00,
2013-02-05 22:49:00,32.8,29.4,29.94,NE,53,0.0,1.0,87,0.00,,---,0.00,VWS V14.01,2013-02-06 03:49:00,
2013-02-05 22:54:00,32.8,29.4,29.94,NE,53,0.0,1.0,87,0.00,,---,0.00,VWS V14.01,2013-02-06 03:54:00,
2013-02-05 22:59:00,32.8,29.4,29.94,NE,53,0.0,1.0,87,0.00,,---,0.00,VWS V14.01,2013-02-06 03:59:00,
2013-02-05 23:04:00,32.9,29.5,29.94,NE,53,0.0,0.0,87,0.00,,---,0.00,VWS V14.01,2013-02-06 04:04:00,
2013-02-05 23:09:00,33.0,29.6,29.94,NE,53,0.0,0.0,87,0.00,,---,0.00,VWS V14.01,2013-02-06 04:09:00,
2013-02-05 23:14:00,33.1,29.7,29.94,NE,53,0.0,1.0,87,0.00,,---,0.00,VWS V14.01,2013-02-06 04:14:00,
2013-02-05 23:19:00,33.1,29.7,29.94,NE,53,0.0,1.0,87,0.00,,---,0.00,VWS V14.01,2013-02-06 04:19:00,
2013-02-05 23:24:00,33.1,29.7,29.94,NE,53,0.0,1.0,87,0.00,,---,0.00,VWS V14.01,2013-02-06 04:24:00,
2013-02-05 23:29:00,33.2,30.0,29.94,NE,53,0.0,1.0,88,0.00,,---,0.00,VWS V14.01,2013-02-06 04:29:00,
2013-02-05 23:34:00,33.2,29.8,29.94,NE,53,0.0,1.0,87,0.00,,---,0.00,VWS V14.01,2013-02-06 04:34:00,
2013-02-05 23:39:00,33.3,29.9,29.94,NE,53,0.0,1.0,87,0.00,,---,0.00,VWS V14.01,2013-02-06 04:39:00,
2013-02-05 23:44:00,33.3,30.1,29.94,NE,53,0.0,1.0,88,0.00,,---,0.00,VWS V14.01,2013-02-06 04:44:00,
2013-02-05 23:49:00,33.3,30.1,29.94,NE,53,0.0,1.0,88,0.00,,---,0.00,VWS V14.01,2013-02-06 04:49:00,
2013-02-05 23:54:00,33.4,30.2,29.94,NE,53,0.0,1.0,88,0.00,,---,0.00,VWS V14.01,2013-02-06 04:54:00,
2013-02-05 23:59:00,33.4,30.0,29.95,NE,53,0.0,1.0,87,0.00,,---,0.00,VWS V14.01,2013-02-06 04:59:00,